| time (UTC) | temp F | wind direction | speed MPH | gust MPH | rain 1hr in | rain 24hr in | rain mn in | humidity % | barometer mb |
| 20260506033511 | 47 | 218 | 11.0 | 19.0 | 0.00 | 0.08 | 0.08 | 93 | 1009.4 |
| 20260506033006 | 47 | 192 | 11.0 | 17.0 | 0.00 | 0.08 | 0.08 | 93 | 1009.4 |
| 20260506032505 | 47 | 195 | 12.0 | 17.0 | 0.00 | 0.08 | 0.08 | 93 | 1009.4 |
| 20260506032005 | 47 | 215 | 12.0 | 17.0 | 0.00 | 0.08 | 0.08 | 93 | 1009.4 |
| 20260506031505 | 47 | 223 | 12.0 | 17.0 | 0.00 | 0.08 | 0.08 | 93 | 1009.4 |
| 20260506031005 | 47 | 204 | 11.0 | 17.0 | 0.00 | 0.08 | 0.08 | 93 | 1009.3 |
| 20260506030505 | 47 | 221 | 11.0 | 14.0 | 0.00 | 0.08 | 0.08 | 93 | 1009.1 |
| 20260506030008 | 47 | 212 | 11.0 | 14.0 | 0.00 | 0.08 | 0.08 | 93 | 1009.0 |
| 20260506025505 | 47 | 215 | 10.0 | 14.0 | 0.00 | 0.08 | 0.08 | 93 | 1008.9 |
| 20260506025005 | 47 | 221 | 10.0 | 14.0 | 0.00 | 0.08 | 0.08 | 93 | 1008.9 |
| 20260506024505 | 47 | 211 | 10.0 | 14.0 | 0.00 | 0.08 | 0.08 | 93 | 1008.9 |
| 20260506024001 | 47 | 199 | 10.0 | 14.0 | 0.00 | 0.08 | 0.08 | 93 | 1009.0 |
| 20260506023501 | 47 | 0 | 10.0 | 15.0 | 0.01 | 0.08 | 0.08 | 93 | 1008.9 |
| 20260506023001 | 47 | 0 | 10.0 | 15.0 | 0.01 | 0.08 | 0.08 | 93 | 1008.9 |
| 20260506022502 | 47 | 188 | 9.0 | 12.0 | 0.01 | 0.08 | 0.08 | 93 | 1008.7 |
| 20260506022001 | 47 | 0 | 9.0 | 11.0 | 0.02 | 0.08 | 0.08 | 93 | 1008.6 |
| 20260506021502 | 47 | 0 | 9.0 | 12.0 | 0.02 | 0.08 | 0.08 | 93 | 1008.7 |
| 20260506021001 | 47 | 0 | 9.0 | 12.0 | 0.02 | 0.08 | 0.08 | 93 | 1008.5 |
| 20260506020501 | 47 | 186 | 9.0 | 11.0 | 0.02 | 0.08 | 0.08 | 93 | 1008.5 |
| 20260506020002 | 47 | 194 | 9.0 | 11.0 | 0.02 | 0.08 | 0.08 | 93 | 1008.5 |
| 20260506015501 | 47 | 0 | 9.0 | 11.0 | 0.03 | 0.08 | 0.08 | 93 | 1008.3 |
| 20260506015000 | 47 | 192 | 8.0 | 12.0 | 0.03 | 0.08 | 0.08 | 93 | 1008.3 |
| 20260506014501 | 47 | 220 | 8.0 | 12.0 | 0.04 | 0.08 | 0.08 | 93 | 1008.3 |
| 20260506014002 | 47 | 194 | 8.0 | 11.0 | 0.04 | 0.08 | 0.08 | 93 | 1008.2 |
| 20260506013001 | 48 | 202 | 8.0 | 11.0 | 0.03 | 0.07 | 0.07 | 92 | 1008.2 |
| 20260506011000 | 48 | 209 | 8.0 | 10.0 | 0.02 | 0.06 | 0.06 | 91 | 1008.4 |
| 20260506010501 | 48 | 225 | 8.0 | 11.0 | 0.03 | 0.06 | 0.06 | 91 | 1008.3 |
| 20260506010003 | 48 | 186 | 7.0 | 11.0 | 0.02 | 0.06 | 0.06 | 91 | 1008.3 |
| 20260506005502 | 48 | 208 | 6.0 | 11.0 | 0.02 | 0.05 | 0.05 | 91 | 1008.3 |
| 20260506005002 | 49 | 0 | 7.0 | 12.0 | 0.02 | 0.05 | 0.05 | 90 | 1008.2 |
| 20260506004500 | 49 | 232 | 9.0 | 12.0 | 0.02 | 0.04 | 0.04 | 90 | 1008.2 |
| 20260506004001 | 49 | 205 | 8.0 | 12.0 | 0.02 | 0.04 | 0.04 | 90 | 1008.1 |
| 20260506002958 | 49 | 225 | 6.0 | 10.0 | 0.03 | 0.04 | 0.04 | 88 | 1007.7 |
| 20260506001956 | 50 | 220 | 6.0 | 9.0 | 0.04 | 0.04 | 0.04 | 88 | 1007.6 |
| 20260506001456 | 50 | 215 | 6.0 | 9.0 | 0.04 | 0.04 | 0.04 | 87 | 1007.5 |
| 20260506000955 | 51 | 214 | 5.0 | 9.0 | 0.04 | 0.04 | 0.04 | 86 | 1007.4 |
| 20260506000448 | 51 | 210 | 4.0 | 8.0 | 0.03 | 0.03 | 0.03 | 86 | 1007.2 |
| 20260505235941 | 51 | 213 | 4.0 | 8.0 | 0.03 | 0.03 | 0.03 | 85 | 1007.0 |
| 20260505235435 | 51 | 225 | 5.0 | 8.0 | 0.03 | 0.03 | 0.03 | 84 | 1006.8 |
| 20260505234934 | 52 | 215 | 4.0 | 8.0 | 0.03 | 0.03 | 0.03 | 83 | 1006.7 |
| 20260505234434 | 52 | 207 | 3.0 | 9.0 | 0.02 | 0.02 | 0.02 | 81 | 1006.6 |
| 20260505233930 | 53 | 209 | 2.0 | 9.0 | 0.02 | 0.02 | 0.02 | 79 | 1006.6 |
| 20260505233430 | 53 | 239 | 1.0 | 8.0 | 0.02 | 0.02 | 0.02 | 78 | 1006.6 |
| 20260505232928 | 54 | 262 | 2.0 | 8.0 | 0.01 | 0.01 | 0.01 | 76 | 1006.5 |
| 20260505232428 | 55 | 227 | 2.0 | 10.0 | 0.01 | 0.01 | 0.01 | 74 | 1006.4 |
| 20260505231927 | 56 | 10 | 2.0 | 10.0 | 0.00 | 0.00 | 0.00 | 71 | 1006.2 |
| 20260505231428 | 57 | 244 | 2.0 | 11.0 | 0.00 | 0.00 | 0.00 | 68 | 1006.1 |
| 20260505230926 | 57 | 86 | 2.0 | 11.0 | 0.00 | 0.00 | 0.00 | 65 | 1006.0 |
| 20260505230426 | 58 | 315 | 2.0 | 8.0 | 0.00 | 0.00 | 0.00 | 62 | 1005.8 |
| 20260505225926 | 59 | 229 | 3.0 | 13.0 | 0.00 | 0.00 | 0.00 | 59 | 1005.6 |
| 20260505225424 | 60 | 351 | 3.0 | 13.0 | 0.00 | 0.00 | 0.00 | 56 | 1005.4 |
| 20260505224923 | 60 | 292 | 2.0 | 11.0 | 0.00 | 0.00 | 0.00 | 53 | 1005.4 |
| 20260505224424 | 60 | 244 | 2.0 | 10.0 | 0.00 | 0.00 | 0.00 | 53 | 1005.3 |
| 20260505223923 | 60 | 265 | 3.0 | 11.0 | 0.00 | 0.00 | 0.00 | 53 | 1005.1 |
| 20260505223417 | 60 | 208 | 3.0 | 11.0 | 0.00 | 0.00 | 0.00 | 53 | 1004.9 |
| 20260505222914 | 60 | 157 | 2.0 | 7.0 | 0.00 | 0.00 | 0.00 | 55 | 1004.7 |
| 20260505221900 | 61 | 255 | 3.0 | 11.0 | 0.00 | 0.00 | 0.00 | 57 | 1004.4 |
| 20260505221354 | 61 | 269 | 3.0 | 11.0 | 0.00 | 0.00 | 0.00 | 58 | 1004.4 |
| 20260505220847 | 61 | 244 | 2.0 | 7.0 | 0.00 | 0.00 | 0.00 | 57 | 1004.2 |
| 20260505220341 | 61 | 295 | 2.0 | 15.0 | 0.00 | 0.00 | 0.00 | 59 | 1004.4 |
| 20260505215834 | 61 | 214 | 2.0 | 15.0 | 0.00 | 0.00 | 0.00 | 60 | 1004.2 |
| 20260505215329 | 61 | 300 | 2.0 | 7.0 | 0.00 | 0.00 | 0.00 | 60 | 1004.1 |
| 20260505213809 | 62 | 0 | 3.0 | 10.0 | 0.00 | 0.00 | 0.00 | 61 | 1003.6 |
| 20260505213303 | 62 | 294 | 3.0 | 16.0 | 0.00 | 0.00 | 0.00 | 61 | 1003.3 |
| 20260505212758 | 62 | 236 | 3.0 | 16.0 | 0.00 | 0.00 | 0.00 | 62 | 1003.3 |
| 20260505212252 | 62 | 281 | 4.0 | 18.0 | 0.00 | 0.00 | 0.00 | 62 | 1003.5 |
| 20260505211240 | 63 | 316 | 3.0 | 15.0 | 0.00 | 0.00 | 0.00 | 62 | 1003.5 |
| 20260505210733 | 63 | 286 | 3.0 | 15.0 | 0.00 | 0.00 | 0.00 | 63 | 1003.3 |
| 20260505210227 | 63 | 117 | 4.0 | 19.0 | 0.00 | 0.00 | 0.00 | 62 | 1003.3 |
| 20260505205722 | 64 | 0 | 4.0 | 19.0 | 0.00 | 0.00 | 0.00 | 62 | 1003.2 |
| 20260505204203 | 67 | 127 | 4.0 | 17.0 | 0.00 | 0.00 | 0.00 | 64 | 1002.7 |
| 20260505203657 | 67 | 16 | 3.0 | 12.0 | 0.00 | 0.00 | 0.00 | 64 | 1002.5 |
| 20260505203151 | 67 | 244 | 2.0 | 10.0 | 0.00 | 0.00 | 0.00 | 64 | 1002.3 |
| 20260505202645 | 68 | 281 | 3.0 | 17.0 | 0.00 | 0.00 | 0.00 | 64 | 1002.2 |
| 20260505202140 | 68 | 213 | 4.0 | 17.0 | 0.00 | 0.00 | 0.00 | 62 | 1002.3 |
| 20260505201634 | 68 | 244 | 5.0 | 18.0 | 0.00 | 0.00 | 0.00 | 62 | 1002.2 |
| 20260505201127 | 69 | 188 | 6.0 | 18.0 | 0.00 | 0.00 | 0.00 | 62 | 1002.0 |
| 20260505200621 | 69 | 307 | 6.0 | 17.0 | 0.00 | 0.00 | 0.00 | 61 | 1002.1 |
| 20260505200115 | 69 | 234 | 5.0 | 17.0 | 0.00 | 0.00 | 0.00 | 60 | 1002.0 |
| 20260505195609 | 69 | 244 | 4.0 | 13.0 | 0.00 | 0.00 | 0.00 | 61 | 1001.9 |
| 20260505195106 | 69 | 216 | 6.0 | 22.0 | 0.00 | 0.00 | 0.00 | 60 | 1001.8 |
| 20260505194605 | 69 | 241 | 6.0 | 22.0 | 0.00 | 0.00 | 0.00 | 59 | 1001.9 |
| 20260505194106 | 70 | 0 | 6.0 | 18.0 | 0.00 | 0.00 | 0.00 | 58 | 1001.9 |
| 20260505193603 | 70 | 223 | 6.0 | 18.0 | 0.00 | 0.00 | 0.00 | 58 | 1001.9 |
| 20260505193101 | 70 | 250 | 7.0 | 21.0 | 0.00 | 0.00 | 0.00 | 57 | 1001.6 |
| 20260505192101 | 70 | 232 | 10.0 | 26.0 | 0.00 | 0.00 | 0.00 | 56 | 1001.6 |
| 20260505191600 | 71 | 219 | 8.0 | 26.0 | 0.00 | 0.00 | 0.00 | 55 | 1001.7 |
| 20260505191059 | 71 | 235 | 8.0 | 26.0 | 0.00 | 0.00 | 0.00 | 55 | 1001.5 |
| 20260505190602 | 71 | 287 | 8.0 | 27.0 | 0.00 | 0.00 | 0.00 | 54 | 1001.2 |
| 20260505184559 | 71 | 221 | 12.0 | 33.0 | 0.00 | 0.00 | 0.00 | 55 | 1001.3 |
| 20260505184100 | 70 | 214 | 12.0 | 31.0 | 0.00 | 0.00 | 0.00 | 58 | 1001.4 |
| 20260505183559 | 70 | 221 | 14.0 | 28.0 | 0.00 | 0.00 | 0.00 | 57 | 1001.1 |
| 20260505182559 | 70 | 235 | 15.0 | 32.0 | 0.00 | 0.00 | 0.00 | 56 | 1001.4 |
| 20260505182055 | 70 | 234 | 12.0 | 32.0 | 0.00 | 0.00 | 0.00 | 56 | 1001.3 |
| 20260505181556 | 69 | 225 | 10.0 | 23.0 | 0.00 | 0.00 | 0.00 | 58 | 1001.3 |
| 20260505181055 | 69 | 302 | 10.0 | 26.0 | 0.00 | 0.00 | 0.00 | 59 | 1001.3 |
| 20260505180556 | 69 | 225 | 10.0 | 26.0 | 0.00 | 0.00 | 0.00 | 59 | 1001.3 |
| 20260505180108 | 69 | 147 | 9.0 | 25.0 | 0.00 | 0.00 | 0.00 | 59 | 1001.1 |
| 20260505175556 | 69 | 196 | 10.0 | 25.0 | 0.00 | 0.00 | 0.00 | 62 | 1001.1 |
| 20260505175055 | 68 | 230 | 11.0 | 26.0 | 0.00 | 0.00 | 0.00 | 63 | 1001.3 |
| 20260505174054 | 67 | 231 | 11.0 | 26.0 | 0.00 | 0.00 | 0.00 | 65 | 1001.6 |
| 20260505173547 | 66 | 236 | 11.0 | 26.0 | 0.00 | 0.00 | 0.00 | 66 | 1001.6 |
| 20260505173041 | 66 | 203 | 11.0 | 25.0 | 0.00 | 0.00 | 0.00 | 66 | 1001.5 |
| 20260505172535 | 65 | 0 | 10.0 | 25.0 | 0.00 | 0.00 | 0.00 | 67 | 1001.6 |
| 20260505171523 | 64 | 251 | 16.0 | 26.0 | 0.00 | 0.00 | 0.00 | 68 | 1001.7 |
| 20260505170511 | 65 | 195 | 14.0 | 33.0 | 0.00 | 0.00 | 0.00 | 66 | 1001.7 |
| 20260505170006 | 65 | 193 | 14.0 | 33.0 | 0.00 | 0.00 | 0.00 | 66 | 1001.8 |
| 20260505165459 | 65 | 244 | 15.0 | 30.0 | 0.00 | 0.00 | 0.00 | 66 | 1001.5 |
| 20260505164953 | 65 | 188 | 15.0 | 27.0 | 0.00 | 0.00 | 0.00 | 66 | 1001.4 |
| 20260505163941 | 65 | 201 | 15.0 | 30.0 | 0.00 | 0.00 | 0.00 | 67 | 1001.5 |
| 20260505163435 | 65 | 220 | 15.0 | 30.0 | 0.00 | 0.00 | 0.00 | 67 | 1001.5 |
| 20260505162930 | 65 | 234 | 14.0 | 24.0 | 0.00 | 0.00 | 0.00 | 68 | 1001.3 |
| 20260505162423 | 65 | 175 | 13.0 | 28.0 | 0.00 | 0.00 | 0.00 | 66 | 1001.2 |
| 20260505161917 | 65 | 225 | 12.0 | 28.0 | 0.00 | 0.00 | 0.00 | 67 | 1001.0 |
| 20260505161411 | 65 | 217 | 11.0 | 22.0 | 0.00 | 0.00 | 0.00 | 67 | 1001.2 |
| 20260505160905 | 65 | 199 | 12.0 | 22.0 | 0.00 | 0.00 | 0.00 | 67 | 1001.2 |
| 20260505160359 | 65 | 240 | 13.0 | 21.0 | 0.00 | 0.00 | 0.00 | 66 | 1001.0 |
| 20260505153323 | 68 | 219 | 14.0 | 26.0 | 0.00 | 0.00 | 0.00 | 64 | 1001.1 |
| 20260505152817 | 67 | 198 | 16.0 | 28.0 | 0.00 | 0.00 | 0.00 | 65 | 1001.2 |
| 20260505152311 | 66 | 221 | 17.0 | 28.0 | 0.00 | 0.00 | 0.00 | 65 | 1001.1 |
| 20260505151805 | 66 | 201 | 16.0 | 25.0 | 0.00 | 0.00 | 0.00 | 67 | 1001.0 |
| 20260505151304 | 66 | 198 | 17.0 | 30.0 | 0.00 | 0.00 | 0.00 | 65 | 1000.9 |
| 20260505150806 | 66 | 231 | 16.0 | 30.0 | 0.00 | 0.00 | 0.00 | 66 | 1000.8 |
| 20260505150303 | 64 | 211 | 13.0 | 20.0 | 0.00 | 0.00 | 0.00 | 70 | 1000.8 |
| 20260505130254 | 57 | 222 | 10.0 | 16.0 | 0.00 | 0.00 | 0.00 | 83 | 1000.3 |
| 20260505124751 | 58 | 0 | 11.0 | 18.0 | 0.00 | 0.00 | 0.00 | 82 | 1000.4 |
| 20260505124251 | 58 | 221 | 11.0 | 18.0 | 0.00 | 0.00 | 0.00 | 83 | 1000.4 |
| 20260505123751 | 57 | 205 | 11.0 | 19.0 | 0.00 | 0.00 | 0.00 | 86 | 1000.5 |
| 20260505123250 | 55 | 219 | 10.0 | 19.0 | 0.00 | 0.00 | 0.00 | 86 | 1000.5 |
| 20260505122753 | 56 | 213 | 9.0 | 18.0 | 0.00 | 0.00 | 0.00 | 81 | 1000.6 |
| 20260505122251 | 58 | 0 | 10.0 | 18.0 | 0.00 | 0.00 | 0.00 | 79 | 1000.7 |
| 20260505121751 | 59 | 214 | 10.0 | 19.0 | 0.00 | 0.00 | 0.00 | 80 | 1000.6 |
| 20260505121251 | 59 | 207 | 10.0 | 19.0 | 0.00 | 0.00 | 0.00 | 81 | 1000.6 |
| 20260505120247 | 58 | 209 | 12.0 | 18.0 | 0.00 | 0.00 | 0.00 | 81 | 1000.6 |
| 20260505115747 | 58 | 218 | 12.0 | 18.0 | 0.00 | 0.00 | 0.00 | 83 | 1000.6 |
| 20260505115247 | 58 | 198 | 11.0 | 16.0 | 0.00 | 0.00 | 0.00 | 83 | 1000.5 |
| 20260505114747 | 58 | 229 | 10.0 | 16.0 | 0.00 | 0.00 | 0.00 | 83 | 1000.4 |
| 20260505113747 | 58 | 0 | 10.0 | 16.0 | 0.00 | 0.00 | 0.00 | 87 | 1000.5 |
| 20260505113248 | 56 | 211 | 10.0 | 16.0 | 0.00 | 0.00 | 0.00 | 88 | 1000.5 |
| 20260505112747 | 55 | 207 | 10.0 | 17.0 | 0.00 | 0.00 | 0.00 | 87 | 1000.6 |
| 20260505112248 | 55 | 181 | 9.0 | 17.0 | 0.00 | 0.00 | 0.00 | 89 | 1000.5 |
| 20260505111743 | 55 | 208 | 10.0 | 15.0 | 0.00 | 0.00 | 0.00 | 87 | 1000.5 |
| 20260505111244 | 56 | 200 | 10.0 | 15.0 | 0.00 | 0.00 | 0.00 | 89 | 1000.5 |
| 20260505110743 | 55 | 198 | 8.0 | 12.0 | 0.00 | 0.00 | 0.00 | 88 | 1000.4 |
| 20260505110243 | 55 | 213 | 8.0 | 11.0 | 0.00 | 0.00 | 0.00 | 87 | 1000.4 |
| 20260505102145 | 0 | 0.0 | 0.0 | 0.00 | 0.00 | 0.00 | 1000.4 | ||
| 20260505101551 | 0 | 0.0 | 0.0 | 0.00 | 0.00 | 0.00 | 1000.0 | ||
| 20260505101049 | 0 | 0.0 | 0.0 | 0.00 | 0.00 | 0.00 | 999.9 | ||
| 20260505100546 | 0 | 0.0 | 0.0 | 0.00 | 0.00 | 0.00 | 1000.1 | ||
| 20260505100047 | 0 | 0.0 | 0.0 | 0.00 | 0.00 | 0.00 | 1000.1 | ||
| 20260505095541 | 0 | 0.0 | 0.0 | 0.00 | 0.00 | 0.00 | 1000.1 | ||
| 20260505094949 | 0 | 0.0 | 0.0 | 0.00 | 0.00 | 0.00 | 1000.1 | ||
| 20260505094446 | 0 | 0.0 | 0.0 | 0.00 | 0.00 | 0.00 | 1000.3 | ||
| 20260505093945 | 0 | 0.0 | 0.0 | 0.00 | 0.00 | 0.00 | 1000.2 | ||
| 20260505093435 | 0 | 0.0 | 0.0 | 0.00 | 0.00 | 0.00 | 1000.3 | ||
| 20260505092844 | 0 | 0.0 | 0.0 | 0.00 | 0.00 | 0.00 | 1000.2 | ||
| 20260505092343 | 0 | 0.0 | 0.0 | 0.00 | 0.00 | 0.00 | 1000.2 | ||
| 20260505091751 | 0 | 0.0 | 0.0 | 0.00 | 0.00 | 0.00 | 1000.1 | ||
| 20260505091245 | 0 | 0.0 | 0.0 | 0.00 | 0.00 | 0.00 | 1000.1 | ||
| 20260505090743 | 0 | 0.0 | 0.0 | 0.00 | 0.00 | 0.00 | 1000.2 | ||
| 20260505085636 | 0 | 0.0 | 0.0 | 0.00 | 0.00 | 0.00 | 1000.4 | ||
| 20260505085041 | 57 | 205 | 10.0 | 15.0 | 0.00 | 0.00 | 0.00 | 75 | 1000.5 |
| 20260505084451 | 57 | 205 | 10.0 | 15.0 | 0.00 | 0.00 | 0.00 | 75 | 1000.7 |
| 20260505083935 | 57 | 205 | 10.0 | 15.0 | 0.00 | 0.00 | 0.00 | 75 | 1000.7 |
| 20260505082932 | 57 | 194 | 11.0 | 16.0 | 0.00 | 0.00 | 0.00 | 76 | 1000.7 |
| 20260505082433 | 57 | 197 | 11.0 | 16.0 | 0.00 | 0.00 | 0.00 | 76 | 1000.8 |
| 20260505081933 | 56 | 227 | 10.0 | 16.0 | 0.00 | 0.00 | 0.00 | 78 | 1000.8 |
| 20260505081432 | 56 | 238 | 10.0 | 15.0 | 0.00 | 0.00 | 0.00 | 80 | 1000.8 |
| 20260505080933 | 56 | 187 | 11.0 | 16.0 | 0.00 | 0.00 | 0.00 | 81 | 1000.9 |
| 20260505080432 | 56 | 224 | 10.0 | 16.0 | 0.00 | 0.00 | 0.00 | 82 | 1000.9 |
| 20260505075933 | 56 | 215 | 10.0 | 16.0 | 0.00 | 0.00 | 0.00 | 80 | 1001.0 |
| 20260505075433 | 56 | 0 | 9.0 | 17.0 | 0.00 | 0.00 | 0.00 | 82 | 1000.9 |
| 20260505074926 | 56 | 0 | 10.0 | 17.0 | 0.00 | 0.00 | 0.00 | 82 | 1000.9 |
| 20260505074421 | 55 | 219 | 12.0 | 19.0 | 0.00 | 0.00 | 0.00 | 83 | 1001.0 |
| 20260505073914 | 55 | 191 | 13.0 | 19.0 | 0.00 | 0.00 | 0.00 | 81 | 1000.9 |
| 20260505072357 | 55 | 214 | 11.0 | 17.0 | 0.00 | 0.00 | 0.00 | 79 | 1000.8 |
| 20260505071850 | 54 | 209 | 11.0 | 16.0 | 0.00 | 0.00 | 0.00 | 77 | 1000.9 |
| 20260505071345 | 54 | 205 | 11.0 | 17.0 | 0.00 | 0.00 | 0.00 | 75 | 1000.9 |
| 20260505070838 | 54 | 0 | 10.0 | 15.0 | 0.00 | 0.00 | 0.00 | 75 | 1000.8 |
| 20260505070332 | 54 | 198 | 10.0 | 15.0 | 0.00 | 0.00 | 0.00 | 73 | 1000.8 |
| 20260505065320 | 57 | 211 | 10.0 | 15.0 | 0.00 | 0.00 | 0.00 | 65 | 1000.6 |
| 20260505064308 | 57 | 224 | 8.0 | 11.0 | 0.00 | 0.00 | 0.00 | 64 | 1000.5 |
| 20260505063802 | 57 | 232 | 8.0 | 11.0 | 0.00 | 0.00 | 0.00 | 64 | 1000.5 |
| 20260505063256 | 57 | 221 | 8.0 | 12.0 | 0.00 | 0.00 | 0.00 | 64 | 1000.5 |
| 20260505062751 | 58 | 202 | 8.0 | 12.0 | 0.00 | 0.00 | 0.00 | 63 | 1000.6 |
| 20260505062244 | 57 | 192 | 7.0 | 11.0 | 0.00 | 0.00 | 0.00 | 64 | 1000.6 |
| 20260505060726 | 57 | 206 | 7.0 | 10.0 | 0.00 | 0.00 | 0.00 | 64 | 1000.6 |
| 20260505060220 | 57 | 202 | 8.0 | 12.0 | 0.00 | 0.00 | 0.00 | 63 | 1000.6 |
| 20260505055714 | 58 | 192 | 8.0 | 12.0 | 0.00 | 0.00 | 0.00 | 63 | 1000.7 |
| 20260505055209 | 58 | 215 | 7.0 | 10.0 | 0.00 | 0.01 | 0.00 | 63 | 1000.7 |
| 20260505054702 | 58 | 205 | 6.0 | 8.0 | 0.00 | 0.01 | 0.00 | 63 | 1000.8 |
| 20260505054156 | 57 | 192 | 6.0 | 9.0 | 0.00 | 0.01 | 0.00 | 63 | 1000.7 |
| 20260505053650 | 58 | 209 | 6.0 | 9.0 | 0.00 | 0.01 | 0.00 | 63 | 1000.7 |
| 20260505053145 | 57 | 209 | 5.0 | 8.0 | 0.00 | 0.01 | 0.00 | 64 | 1000.8 |
| 20260505052638 | 57 | 205 | 5.0 | 8.0 | 0.00 | 0.01 | 0.00 | 64 | 1000.8 |
| 20260505052135 | 57 | 182 | 5.0 | 8.0 | 0.00 | 0.01 | 0.00 | 64 | 1000.9 |
| 20260505051634 | 56 | 191 | 4.0 | 8.0 | 0.00 | 0.01 | 0.00 | 66 | 1000.9 |
| 20260505051135 | 55 | 225 | 3.0 | 5.0 | 0.00 | 0.01 | 0.00 | 70 | 1000.9 |
| 20260505050130 | 54 | 213 | 2.0 | 4.0 | 0.00 | 0.01 | 0.00 | 73 | 1000.9 |
| 20260505041619 | 55 | 216 | 4.0 | 5.0 | 0.00 | 0.01 | 0.00 | 71 | 1001.5 |
| 20260505041119 | 56 | 211 | 3.0 | 5.0 | 0.00 | 0.01 | 0.00 | 70 | 1001.6 |
| 20260505040619 | 57 | 211 | 3.0 | 6.0 | 0.00 | 0.01 | 0.00 | 67 | 1001.5 |
| 20260505040118 | 57 | 227 | 3.0 | 6.0 | 0.00 | 0.01 | 0.00 | 65 | 1001.6 |
| 20260505035114 | 56 | 225 | 3.0 | 6.0 | 0.00 | 0.01 | 0.01 | 68 | 1001.5 |
| 20260505034613 | 57 | 244 | 3.0 | 5.0 | 0.00 | 0.01 | 0.01 | 67 | 1001.5 |
| 20260505034112 | 58 | 200 | 4.0 | 8.0 | 0.00 | 0.01 | 0.01 | 63 | 1001.6 |
| 20260505033607 | 60 | 193 | 5.0 | 9.0 | 0.00 | 0.01 | 0.01 | 58 | 1001.5 |